Quincy, IL

6:42 AM CDT on August 19, 2017 (GMT -0500)
Quincy Regional-Baldwin

Weather History for KUIN - October, 2012

Change the Weather History Date:

Saturday, October 27, 2012

  Actual Average Record
Temperature  
Mean Temperature 37 °F 51 °F  
Max Temperature 47 °F 61 °F 84 °F (1927)
Min Temperature 27 °F 41 °F 25 °F (2001)
Degree Days  
Heating Degree Days 28 14  
Month to date heating degree days 296 276  
Since 1 July heating degree days 381 363  
Cooling Degree Days 0 0  
Month to date cooling degree days 21 14  
Year to date cooling degree days 1573 1090  
Moisture  
Dew Point 27 °F    
Average Humidity 67    
Maximum Humidity 85    
Minimum Humidity 49    
Precipitation  
Precipitation 0.00 in 0.09 in 2.45 in (1931)
Month to date precipitation 4.66 2.62  
Year to date precipitation 23.22 31.67  
Sea Level Pressure  
Sea Level Pressure 30.33 in    
Wind  
Wind Speed 8 mph (North)    
Max Wind Speed 15 mph    
Max Gust Speed 18 mph    
Visibility 10 miles    
Events      
T = Trace of Precipitation, MM = Missing Value Source: NWS Daily Summary

Daily Weather History Graph

Daily Weather History Graph

Search for Another Location

Airport or City:

Trip Planner

Search our weather history database for the weather conditions in past years. The results will help you decide how hot, cold, wet, or windy it might be!

Date:

Astronomy

Oct. 27, 2012 Rise Set
Actual Time 7:28 AM CDT 6:07 PM CDT
Civil Twilight 7:00 AM CDT 6:35 PM CDT
Nautical Twilight 6:29 AM CDT 7:07 PM CDT
Astronomical Twilight 5:57 AM CDT 7:38 PM CDT
Moon 4:54 PM CDT (10/27) 5:24 AM CDT (10/27)
Length of Visible Light 11h 34m
Length of Day
10h 39m
Waxing Gibbous, 96% of the Moon is Illuminated
Oct 27
Waxing Gibbous
Oct 29
Full
Nov 6
Last Quarter
Nov 13
New
Nov 20
First Quarter

Hourly Weather History & Observations

Time (CDT) Temp. Windchill Dew Point Humidity Pressure Visibility Wind Dir Wind Speed Gust Speed Precip Events Conditions
12:54 AM 35.1 °F 27.9 °F 28.0 °F 76% 30.37 in 10.0 mi North 9.2 mph - N/A   Clear
1:54 AM 33.1 °F 25.5 °F 27.0 °F 78% 30.37 in 10.0 mi North 9.2 mph - N/A   Clear
2:54 AM 32.0 °F 24.2 °F 26.1 °F 79% 30.35 in 10.0 mi North 9.2 mph - N/A   Clear
3:54 AM 30.9 °F 23.5 °F 26.1 °F 82% 30.35 in 10.0 mi North 8.1 mph - N/A   Clear
4:54 AM 32.0 °F 23.6 °F 26.1 °F 79% 30.35 in 10.0 mi North 10.4 mph - N/A   Clear
5:54 AM 30.0 °F 24.1 °F 25.0 °F 82% 30.35 in 10.0 mi North 5.8 mph - N/A   Clear
6:54 AM 28.0 °F 21.7 °F 24.1 °F 85% 30.35 in 10.0 mi North 5.8 mph - N/A   Clear
7:54 AM 28.9 °F 21.9 °F 24.1 °F 82% 30.38 in 10.0 mi NNW 6.9 mph - N/A   Clear
8:54 AM 34.0 °F 26.0 °F 26.1 °F 73% 30.39 in 10.0 mi North 10.4 mph - N/A   Clear
9:54 AM 37.9 °F 30.0 °F 28.0 °F 68% 30.40 in 10.0 mi North 12.7 mph - N/A   Clear
10:54 AM 41.0 °F 33.9 °F 27.0 °F 57% 30.39 in 10.0 mi NNE 12.7 mph - N/A   Clear
11:54 AM 43.0 °F 38.2 °F 27.0 °F 53% 30.36 in 10.0 mi North 8.1 mph - N/A   Clear
12:54 PM 43.0 °F 38.2 °F 26.1 °F 51% 30.34 in 10.0 mi North 8.1 mph - N/A   Clear
1:54 PM 44.1 °F 39.5 °F 26.1 °F 49% 30.31 in 10.0 mi North 8.1 mph - N/A   Clear
2:54 PM 46.9 °F - 28.0 °F 48% 30.28 in 10.0 mi North 10.4 mph - N/A   Clear
3:54 PM 45.0 °F 40.1 °F 26.1 °F 48% 30.29 in 10.0 mi North 9.2 mph - N/A   Clear
4:54 PM 44.1 °F 39.0 °F 27.0 °F 51% 30.29 in 10.0 mi North 9.2 mph - N/A   Clear
5:54 PM 42.1 °F 36.1 °F 28.0 °F 58% 30.28 in 10.0 mi North 10.4 mph - N/A   Clear
6:54 PM 37.9 °F 32.7 °F 28.0 °F 68% 30.29 in 10.0 mi North 6.9 mph - N/A   Clear
7:54 PM 36.0 °F 31.1 °F 28.0 °F 73% 30.29 in 10.0 mi North 5.8 mph - N/A   Clear
8:54 PM 34.0 °F 28.8 °F 27.0 °F 75% 30.30 in 10.0 mi North 5.8 mph - N/A   Clear
9:54 PM 33.1 °F 27.7 °F 26.1 °F 75% 30.30 in 10.0 mi North 5.8 mph - N/A   Clear
10:54 PM 34.0 °F 29.8 °F 27.0 °F 75% 30.31 in 10.0 mi North 4.6 mph - N/A   Clear
11:54 PM 34.0 °F 28.8 °F 27.0 °F 75% 30.31 in 10.0 mi North 5.8 mph - N/A   Clear